This is the latest recevied weather packets stored in our database for station/object K5GHS-1. If no packets are shown the sender has not sent any weather packets the latest 10 day(s).
| Time | Temp. | Humidity | Pressure | Rain* | Wind** | Luminosity | Snow |
|---|---|---|---|---|---|---|---|
| 1777226218 | 26.11° C | 78% | 1006.7 hPa | 0 mm | - | 115 W/m² | - |
| 1777225914 | 26.11° C | 77% | 1006.7 hPa | 0 mm | - | 101 W/m² | - |
| 1777225610 | 26.67° C | 76% | 1007 hPa | 0 mm | - | 85 W/m² | - |
| 1777225308 | 26.67° C | 75% | 1006.9 hPa | 0 mm | - | 68 W/m² | - |
| 1777225004 | 26.67° C | 75% | 1007 hPa | 0 mm | - | 205 W/m² | - |
| 1777224701 | 26.67° C | 75% | 1006.9 hPa | 0 mm | - | 112 W/m² | - |
| 1777224396 | 27.78° C | 73% | 1006.8 hPa | 0 mm | - | 104 W/m² | - |
| 1777224092 | 27.78° C | 74% | 1006.7 hPa | 0 mm | - | 186 W/m² | - |
| 1777223790 | 27.78° C | 73% | 1006.7 hPa | 0 mm | - | 471 W/m² | - |
| 1777223485 | 27.78° C | 75% | 1006.6 hPa | 0 mm | - | 496 W/m² | - |
| 1777223183 | 27.22° C | 75% | 1006.8 hPa | 0 mm | - | 705 W/m² | - |
| 1777222880 | 27.22° C | 76% | 1006.9 hPa | 0 mm | - | 212 W/m² | - |
| 1777222578 | 27.22° C | 76% | 1007 hPa | 0 mm | - | 286 W/m² | - |
| 1777222275 | 26.67° C | 77% | 1007.2 hPa | 0 mm | - | 425 W/m² | - |
| 1777221973 | 26.67° C | 77% | 1007.3 hPa | 0 mm | - | 324 W/m² | - |
| 1777221668 | 26.67° C | 77% | 1007.3 hPa | 0 mm | - | 607 W/m² | - |
| 1777221365 | 26.67° C | 77% | 1007 hPa | 0 mm | - | 535 W/m² | - |
| 1777221063 | 26.11° C | 78% | 1007 hPa | 0 mm | - | 517 W/m² | - |
| 1777220763 | 26.11° C | 79% | 1006.9 hPa | 0 mm | - | 764 W/m² | - |
| 1777220459 | 26.11° C | 78% | 1007.1 hPa | 0 mm | - | 284 W/m² | - |
| 1777220159 | 26.67° C | 78% | 1007 hPa | 0 mm | - | 373 W/m² | - |
| 1777219855 | 26.67° C | 78% | 1007.1 hPa | 0 mm | - | 530 W/m² | - |
| 1777219553 | 26.11° C | 78% | 1006.8 hPa | 0 mm | - | 530 W/m² | - |
| 1777219250 | 25.56° C | 79% | 1006.6 hPa | 0 mm | - | 471 W/m² | - |
| 1777218945 | 25.56° C | 80% | 1006.9 hPa | 0 mm | - | 454 W/m² | - |
* Rain latest hour (hover to see other rain measurements)
** Current wind speed in m/s (hover to see current wind gust speed)